FENGYUN 1C DEB *, 47006

Orbit data source: Space-Track

FENGYUN 1C DEB *, 47006 is space debris in SSO originally from a launch on Mon, 10 May 1999 UTC launched from the Taiyaun Space Center, China (TSC). Fengyun 1C debris stems from the Chinese weather satellite Fengyun-1C, which was intentionally destroyed by a Chinese anti-satellite missile in 2007. This event dramatically increased the amount of space debris, with thousands of trackable fragments posing hazards to satellites and human spaceflight. The Fengyun 1C debris cloud has become a focal point in discussions about space sustainability and the need for international regulations to prevent the creation of new debris.

Loading next visibility...
Identifier
47006, 1999-025FAG
Orbit
SSO
Country
Flag of CNCN / PRC
Related business
Manufacturer
Unknown
Mission
Spacecraft
Bus & Motor
Unknown
Mass
Unknown
Launch date (UTC)
1999-05-10 (27 years ago)
Launch vehicle
Unknown
Launch site
Taiyaun Space Center, China (TSC)
Object type
Payload
Rocket body
Debris
Shape & HBR
Unknown shape, 0.1 m
Radar Cross Section
Small (<0.1 m²)

Expand to show TLE details & history
Last TLE update: 4 months ago

TLE from 4 months ago
0 FENGYUN 1C DEB *
1 47006U 99025FAG 25224.42333167  .00000281  00000-0  22271-3 0  9994
2 47006  99.2124 282.3635 0083426  51.9481 308.9172 13.97974384810583
Epoch: 2025-08-12T10:09Z
TLE epoch observation values (Epoch: 2025-08-12T10:09:35.856Z)
Latitude
-0.00004°
Longitude
168.84792°
Altitude
865.84 km
Speed
7.439 km/s
True Right ascension
18h 49m 27s
True Declination
0° 00' 00"
Sunlit
Object was in full shadow at epoch
Visualization orbit readout
Latitude
Unknown
Longitude
Unknown
Altitude
Unknown
Speed
Unknown
Apparent Right ascension
Unknown
Apparent Declination
Unknown
Sunlit
N/A
Visualization observer readout
Local Sidereal Time
13:39:55
Azimuth
Unknown
Elevation
Unknown
Doppler factor
Unknown
Orbital elements
Apogee altitude
958.732 km
Perigee altitude
837.328 km
Semi-major axis
7,276.167 km
Eccentricity
0.00834
Inclination
99.2124°
RAAN
282.3635°
Arg. of periapsis
51.9481°
True anomaly
308.1685°
Mean anomaly
308.9172°
Eccentric anomaly
308.54334°
Mean motion
3.49695 °/min
Orbital period
102.95 mins
BSTAR
0.00022271
Loading maneuver chart data...
Computing Atmospheric mass density...

Documentation

Showing up to 5 results
|